STARLINK-36321, 68046

Orbit data source: Space-Track

STARLINK-36321, 68046 is a payload satellite owned by SpaceX/Seattle (US) in LEO that was launched on Mon, 02 Mar 2026 UTC via an FALCON 9 launch vehicle from the Air Force Eastern Test Range (AFETR). Payload-class satellites include a variety of spacecraft equipped with specific instruments for various scientific and technological missions. These include communications satellites like Starlink; space stations such as the ISS; scientific satellites like the Hubble; Earth observation satellites from companies like Planet Labs, Umbra, and HawkEye 360; GPS; miniature CubeSats for education and research; and military/defense satellites.

Loading next visibility...
Identifier
68046, 2026-041G
Orbit
LEO
Country
Flag of USUS
Related business
Manufacturer
SpaceX/Seattle
Mission
Operational Commercial Communications
Bus & Motor
STARLINK V2MO, Unknown motor
Mass
575 kg wet, ~530 kg dry
Launch date (UTC)
2026-03-02 (4 months ago)
Launch vehicle
FALCON 9
Launch site
Air Force Eastern Test Range (AFETR)
Object type
Payload
Rocket body
Debris
Shape & HBR
Box + 2 Pan, 17.7 m
Radar Cross Section
36.964 m², Large (>1 m²)

Expand to show TLE details & history
Last TLE update: 12 hours ago

TLE from 12 hours ago
0 STARLINK-36321
1 68046U 26041G   26171.33555684  .00028702  00000-0  85712-3 0  9998
2 68046  53.1589 292.4051 0001084  92.4474 267.6653 15.34408989 17119
Epoch: 2026-06-20T08:03Z
TLE epoch observation values (Epoch: 2026-06-20T08:03:12.110Z)
Latitude
-0.00002°
Longitude
-96.94703°
Altitude
463.608 km
Speed
7.636 km/s
True Right ascension
19h 29m 37s
True Declination
0° 00' 00"
Sunlit
Object was in full shadow at epoch
Visualization orbit readout
Latitude
Unknown
Longitude
Unknown
Altitude
Unknown
Speed
Unknown
Apparent Right ascension
Unknown
Apparent Declination
Unknown
Sunlit
N/A
Visualization observer readout
Local Sidereal Time
07:19:34
Azimuth
Unknown
Elevation
Unknown
Doppler factor
Unknown
Orbital elements
Apogee altitude
463.675 km
Perigee altitude
462.192 km
Semi-major axis
6,841.071 km
Eccentricity
0.00011
Inclination
53.1589°
RAAN
292.4051°
Arg. of periapsis
92.4474°
True anomaly
267.65289°
Mean anomaly
267.6653°
Eccentric anomaly
267.65909°
Mean motion
3.83581 °/min
Orbital period
93.85 mins
BSTAR
0.00085712
Loading maneuver chart data...
Computing Atmospheric mass density...
Loading historical data...
Loading historical data...
Loading historical data...
Loading historical data...
Loading historical data...
Loading historical data...
Loading historical data...

Documentation

Showing up to 5 results
|